Flag for Canada Weather past 2 weeks in Stephenville, Newfoundland and Labrador, Canada

Now
57 °F

Clear.


Feels Like: 57 °F
Forecast: 56 / 72 °F
Wind: 5 mph from East

Location: Stephenville

Current Time: Sep 1, 2014 at 11:46:50 PM

Latest Report: Sep 1, 2014 at 10:30 PM


Visibility: 15 mi

Pressure: 30.01 "Hg

Humidity: 63%

Dew point: 45 °F

Location of StephenvilleLocation

Historic Weather in Stephenville — Graph

°F

Stephenville temperature yesterday

Maximum temperature yesterday: 64 °F (at 1:30 AM)
Minimum temperature yesterday: 59 °F (at 6:30 AM)
Average temperature yesterday: 61 °F

Past Weeks' High & Low Weather Summary

 TemperatureHumidityPressure
High75 °F (Aug 26, 12:30 PM)94% (Aug 31, 6:30 AM)30.17 "Hg (Aug 31, 6:30 AM)
Low43 °F (Aug 30, 4:30 AM)44% (Sep 1, 5:30 PM)29.52 "Hg (Aug 19, 10:30 AM)
Average62 °F76%29.91 "Hg
* Reported Aug 17 10:30 PM — Sep 1 10:30 PM, Stephenville, Weather by CustomWeather, © 2014

Note: Actual official high and low records may vary slightly from our data, if they occured in-between our weather recording intervals... More about our weather records

Advertising

Stephenville weather history for previous 24 hours

 ConditionsComfort  
Time TempWeatherWind HumidityBarometerVisibility
10:30 PM
Sep 1
57 °FClear.5 mph63%30.01 "Hg15 mi
9:30 PM59 °FPassing clouds.6 mph63%29.99 "Hg15 mi
8:30 PM63 °FScattered clouds.8 mph59%29.97 "Hg15 mi
7:30 PM64 °FScattered clouds.9 mph60%29.97 "Hg15 mi
6:30 PM68 °FPassing clouds.12 mph49%29.96 "Hg15 mi
5:30 PM72 °FPassing clouds.15 mph44%29.96 "Hg15 mi
4:30 PM72 °FPassing clouds.14 mph50%29.96 "Hg15 mi
3:30 PM72 °FPassing clouds.14 mph50%29.94 "Hg15 mi
2:30 PM72 °FPassing clouds.8 mph53%29.95 "Hg15 mi
1:30 PM72 °FPassing clouds.9 mph65%29.94 "Hg15 mi
12:30 PM70 °FPassing clouds.10 mph69%29.93 "Hg15 mi
11:30 AM68 °FPassing clouds.9 mph78%29.94 "Hg15 mi
10:30 AM66 °FPassing clouds.6 mph83%29.94 "Hg15 mi
9:30 AM64 °FPassing clouds.No wind83%29.93 "Hg15 mi
8:30 AM63 °FScattered clouds.No wind88%29.92 "Hg15 mi
7:30 AM61 °FPartly sunny.No wind88%29.91 "Hg15 mi
6:30 AM61 °FPassing clouds.No wind94%29.89 "Hg12 mi
5:30 AM61 °FMostly cloudy.No wind94%29.87 "Hg8 mi
4:30 AM61 °FMostly cloudy.5 mph94%29.86 "Hg12 mi
3:30 AM61 °FMostly cloudy.5 mph94%29.85 "Hg15 mi
2:30 AM63 °FSprinkles. Overcast.9 mph88%29.84 "Hg15 mi
1:30 AM63 °FSprinkles. Fog.8 mph88%29.84 "Hg3 mi
12:30 AM63 °FSprinkles. Fog.7 mph88%29.83 "Hg3 mi
11:30 PM
Aug 31
63 °FRain showers. Fog.16 mph88%29.83 "Hg3 mi
11:16 PMN/ARain showers.10 mphN/AN/A3 mi
Weather by CustomWeather, © 2014

See weather overviewHow to use our weather pages